Weather in Krasny Liman

Russia / Voronezh Oblast     51°31′30″N   39°51′58″E
temp.,
°C
wind,
m/s
gust,
m/s
humid.,
%
clouds,
%
prec.,
mm/h
press.,
hPa
HPBL,
m
27 november, sat
sat2700:00−2s410835 0.0 1019243
03:00−3sse498830 0.0 1018198
06:00−2sse5139151 0.0 1016270
09:00+1se71488100 0.0 1015325
12:00+3sse81879100 0.0 1013598
15:00+3sse91884100 0.9 1010588
18:00+3sse91988100 1.6 1009684
21:00+3s71586100 1.8 1008493
28 november, sun
sun2800:00+3s61394100 0.1 1008371
03:00+3s5119695 0.1 1008268
06:00+4s499794 0.1 1008214
09:00+5s4999100 2.2 1009246
12:00+5s3798100 0.2 1009202
15:00+6ssw2598100 0.3 1011154
18:00+6s2497100 0.0 101280
21:00+6sse359592 0.0 1012114
29 november, mon
mon2900:00+4sse4793100 0.0 1012119
03:00+4se41095100 0.0 1011176
06:00+7sse51396100 0.2 1009385
09:00+9sse111991100 4.5 1007883
12:00+8sse91784100 1.8 1005617
15:00+9sse91784100 1.8 1002648
18:00+9sse112192100 4.4 998928
21:00+11s112084100 5.2 994959
30 november, tue
tue3000:00+12s122085100 0.3 9901049
03:00+12ssw111980100 1.4 9891124
06:00+8sw10167983 0.0 991955
09:00+6wsw91469100 0.0 9931108
12:00+5sw8136730 0.0 9951143
15:00+4sw8136498 0.0 995913
18:00+3sw7146916 0.0 996770
21:00+2sw7137133 0.0 995739
1 december, wed
wed100:00+1sw6127539 0.0 995614
03:000sw7127983 0.0 995665
06:00−1w6128090 0.0 996838
09:00−1w6108091 0.1 998849
12:000w71067100 0.0 9991029
15:000w6106299 0.0 10001294
18:00−1wsw51080100 0.0 1001830
21:00−1sw5119491 0.7 1001698